Погода в Аннополе

Украина / Хмельницкая область     50°27′13″N   26°53′43″E
темп.,
°C
ветер,
м/с
пор.,
м/с
влажн.,
%
обл.,
%
осадки,
мм/ч
давл.,
гПа
погр.,
м
26 июля, пн
пн2600:00+18вюв356874 0.0 101978
03:00+18юв376715 0.0 1019158
06:00+18юв386513 0.0 1019188
09:00+22юв59585 0.0 1018376
12:00+27ююв68426 0.0 10181502
15:00+27ююв574799 0.0 10181210
18:00+28ю564679 0.0 10171863
21:00+22юв496852 0.0 1017158
27 июля, вт
вт2700:00+20юв4116813 0.0 1018226
03:00+18юв4107319 0.0 1018174
06:00+18ююв513670 0.0 1017270
09:00+22ююв6116193 0.2 1016427
12:00+26ю685542 0.8 1016684
15:00+31ююз684329 0.8 10141777
18:00+29ююз475121 0.0 1013897
21:00+20с119179 1.8 101416
28 июля, ср
ср2800:00+19зюз129397 2.4 101529
03:00+19зюз229671 4.4 101443
06:00+18сз35972 0.0 1014110
09:00+22сз3480100 0.0 1015429
12:00+26зсз345986 0.0 10151183
15:00+29з34476 0.0 10141667
18:00+28зюз44486 0.0 10141394
21:00+23з33650 0.0 101439
29 июля, чт
чт2900:00+21ююв116911 0.0 101411
03:00+20юв227592 0.0 101313
06:00+20юв347999 0.3 101281
09:00+23ююв2477100 1.0 1012223
12:00+28юз335718 0.0 10121119
15:00+30з555312 0.0 10111696
18:00+27з79615 0.1 10101193
21:00+22зсз597589 0.1 1012320
30 июля, пт
пт3000:00+19з489463 0.0 1012178
03:00+18зсз37961 0.0 1012169
06:00+17зсз35961 0.0 101399
09:00+22сз23741 0.0 1012404
12:00+26з23520 0.0 10121221
15:00+29зюз33410 0.0 10101506
18:00+29зюз23430 0.0 10091390
21:00+24юв33600 0.0 100824